When you browse on this site, cookies collect data to enhance your experience and personalize the content and advertising you see.
Visit our Privacy Policy to learn more. By continuing to use the site, you agree to this use of cookies and data.
  • In United Kingdom
  • List of Countries
  • For 7 days
  • Water Temperature
  • Satellite Maps
  • Weather Map
  • Weather Widgets
  • user-avatar
    Login

    Hourly Weather Vivsyanyky

    Today, 23 April, Tuesday

    Time Temperature Precipitation Wind Pressure Humidity
    00:00 +7°C° 0 mm 2 mps 739 mmHg 65%
    01:00 +6°C° 0 mm 2 mps 739 mmHg 65%
    02:00 +6°C° 0 mm 2 mps 739 mmHg 65%
    03:00 +6°C° 0 mm 2 mps 739 mmHg 65%
    04:00 +6°C° 0 mm 2 mps 739 mmHg 66%
    05:00 +6°C° 0 mm 2 mps 739 mmHg 67%
    06:00 +7°C° 0 mm 3 mps 739 mmHg 63%
    07:00 +8°C° 0 mm 4 mps 739 mmHg 60%
    08:00 +11°C° 0 mm 4 mps 740 mmHg 56%
    09:00 +12°C° 0 mm 5 mps 740 mmHg 51%
    10:00 +13°C° 0 mm 5 mps 740 mmHg 46%
    11:00 +14°C° 0 mm 6 mps 740 mmHg 41%
    12:00 +15°C° 0 mm 6 mps 740 mmHg 41%
    13:00 +15°C° 0 mm 6 mps 740 mmHg 40%
    14:00 +15°C° 0 mm 6 mps 740 mmHg 40%
    15:00 +15°C° 0 mm 5 mps 739 mmHg 42%
    16:00 +15°C° 0 mm 5 mps 739 mmHg 45%
    17:00 +14°C° 0 mm 5 mps 739 mmHg 47%
    18:00 +13°C° 0 mm 5 mps 739 mmHg 50%
    19:00 +12°C° 0 mm 4 mps 739 mmHg 52%
    20:00 +11°C° 0 mm 4 mps 739 mmHg 54%
    21:00 +10°C° 0 mm 4 mps 739 mmHg 57%
    22:00 +8°C° 0 mm 4 mps 739 mmHg 61%
    23:00 +7°C° 0 mm 4 mps 739 mmHg 64%

    Tomorrow, 24 April, Wednesday

    Time Temperature Precipitation Wind Pressure Humidity
    00:00 +7°C° 0 mm 3 mps 739 mmHg 66%
    01:00 +7°C° 0 mm 3 mps 739 mmHg 68%
    02:00 +5°C° 0 mm 3 mps 739 mmHg 70%
    03:00 +5°C° 0 mm 3 mps 739 mmHg 70%
    04:00 +5°C° 0 mm 4 mps 739 mmHg 69%
    05:00 +5°C° 0 mm 4 mps 738 mmHg 68%
    06:00 +6°C° 0 mm 5 mps 739 mmHg 65%
    07:00 +8°C° 0 mm 6 mps 739 mmHg 62%
    08:00 +9°C° 0 mm 7 mps 739 mmHg 58%
    09:00 +10°C° 0 mm 7 mps 739 mmHg 54%
    10:00 +12°C° 0 mm 7 mps 739 mmHg 49%
    11:00 +13°C° 0 mm 8 mps 740 mmHg 44%
    12:00 +14°C° 0 mm 7 mps 739 mmHg 44%
    13:00 +15°C° 0 mm 7 mps 739 mmHg 43%
    14:00 +15°C° 0 mm 7 mps 739 mmHg 43%
    15:00 +15°C° 0 mm 7 mps 739 mmHg 45%
    16:00 +15°C° 0 mm 6 mps 739 mmHg 48%
    17:00 +15°C° 0 mm 6 mps 738 mmHg 50%
    18:00 +13°C° 0 mm 5 mps 738 mmHg 55%
    19:00 +12°C° 0 mm 4 mps 738 mmHg 61%
    20:00 +10°C° 0 mm 4 mps 738 mmHg 66%
    21:00 +10°C° 0 mm 4 mps 738 mmHg 67%
    22:00 +8°C° 0 mm 4 mps 739 mmHg 69%
    23:00 +8°C° 0 mm 4 mps 739 mmHg 70%

    Day after tomorrow, 25 April, Thursday

    Time Temperature Precipitation Wind Pressure Humidity
    00:00 +8°C° 0 mm 4 mps 739 mmHg 72%
    01:00 +7°C° 0 mm 4 mps 739 mmHg 74%
    02:00 +8°C° 0 mm 3 mps 739 mmHg 76%
    03:00 +7°C° 0 mm 3 mps 739 mmHg 78%
    04:00 +7°C° 0 mm 3 mps 739 mmHg 80%
    05:00 +5°C° 0 mm 3 mps 739 mmHg 82%
    06:00 +7°C° 0 mm 4 mps 739 mmHg 75%
    07:00 +8°C° 0 mm 5 mps 739 mmHg 68%
    08:00 +10°C° 0 mm 5 mps 739 mmHg 62%
    09:00 +11°C° 0 mm 6 mps 739 mmHg 57%
    10:00 +14°C° 0 mm 6 mps 739 mmHg 53%
    11:00 +15°C° 0 mm 6 mps 739 mmHg 48%
    12:00 +16°C° 0 mm 6 mps 739 mmHg 47%
    13:00 +17°C° 0 mm 6 mps 739 mmHg 45%
    14:00 +17°C° 0 mm 6 mps 739 mmHg 44%
    15:00 +17°C° 0 mm 6 mps 738 mmHg 46%
    16:00 +17°C° 0 mm 6 mps 738 mmHg 48%
    17:00 +17°C° 0 mm 5 mps 737 mmHg 50%
    18:00 +15°C° 0 mm 5 mps 737 mmHg 55%
    19:00 +14°C° 0 mm 4 mps 737 mmHg 60%
    20:00 +12°C° 0 mm 3 mps 737 mmHg 65%
    21:00 +12°C° 0 mm 4 mps 737 mmHg 66%
    22:00 +11°C° 0 mm 4 mps 737 mmHg 67%
    23:00 +11°C° 0 mm 4 mps 737 mmHg 68%

    26 April, Friday

    Time Temperature Precipitation Wind Pressure Humidity
    00:00 +10°C° 0 mm 4 mps 737 mmHg 70%
    01:00 +10°C° 0 mm 4 mps 736 mmHg 71%
    02:00 +8°C° 0 mm 4 mps 736 mmHg 73%
    03:00 +8°C° 0 mm 4 mps 736 mmHg 73%
    04:00 +7°C° 0 mm 4 mps 736 mmHg 73%
    05:00 +7°C° 0 mm 4 mps 736 mmHg 73%
    06:00 +8°C° 0 mm 4 mps 736 mmHg 69%
    07:00 +9°C° 0 mm 5 mps 736 mmHg 65%
    08:00 +12°C° 0 mm 5 mps 736 mmHg 61%
    09:00 +13°C° 0 mm 6 mps 736 mmHg 57%
    10:00 +15°C° 0 mm 6 mps 736 mmHg 54%
    11:00 +16°C° 0 mm 6 mps 736 mmHg 51%
    12:00 +17°C° 0 mm 6 mps 735 mmHg 50%
    13:00 +19°C° 0 mm 6 mps 735 mmHg 50%
    14:00 +20°C° 0 mm 6 mps 735 mmHg 49%
    15:00 +19°C° 0 mm 6 mps 734 mmHg 50%
    16:00 +19°C° 0 mm 6 mps 734 mmHg 51%
    17:00 +19°C° 0 mm 5 mps 734 mmHg 53%
    18:00 +16°C° 0 mm 5 mps 734 mmHg 57%
    19:00 +15°C° 0 mm 5 mps 734 mmHg 61%
    20:00 +13°C° 0 mm 4 mps 733 mmHg 65%
    21:00 +13°C° 0 mm 4 mps 733 mmHg 65%
    22:00 +12°C° 0 mm 4 mps 733 mmHg 65%
    23:00 +12°C° 0 mm 4 mps 733 mmHg 64%

    27 April, Saturday

    Time Temperature Precipitation Wind Pressure Humidity
    00:00 +11°C° 0 mm 4 mps 733 mmHg 65%
    01:00 +10°C° 0 mm 5 mps 733 mmHg 66%
    02:00 +10°C° 0 mm 5 mps 732 mmHg 66%
    03:00 +9°C° 0 mm 5 mps 732 mmHg 67%
    04:00 +10°C° 0 mm 4 mps 732 mmHg 69%
    05:00 +8°C° 0 mm 4 mps 732 mmHg 70%
    06:00 +10°C° 0 mm 5 mps 732 mmHg 67%
    07:00 +11°C° 0 mm 6 mps 732 mmHg 63%
    08:00 +13°C° 0 mm 6 mps 732 mmHg 60%
    09:00 +15°C° 0 mm 7 mps 732 mmHg 57%
    10:00 +16°C° 0 mm 7 mps 732 mmHg 54%
    11:00 +18°C° 0 mm 7 mps 732 mmHg 51%
    12:00 +18°C° 0 mm 7 mps 732 mmHg 51%
    13:00 +20°C° 0 mm 7 mps 731 mmHg 50%
    14:00 +21°C° 0 mm 7 mps 731 mmHg 50%
    15:00 +20°C° 0 mm 7 mps 730 mmHg 51%
    16:00 +20°C° 0 mm 6 mps 730 mmHg 52%
    17:00 +20°C° 0 mm 6 mps 730 mmHg 54%
    18:00 +17°C° 0 mm 5 mps 730 mmHg 58%
    19:00 +16°C° 0 mm 5 mps 729 mmHg 62%
    20:00 +14°C° 0 mm 4 mps 729 mmHg 66%
    21:00 +14°C° 0 mm 4 mps 729 mmHg 68%
    22:00 +13°C° 0 mm 5 mps 729 mmHg 70%
    23:00 +13°C° 0 mm 5 mps 730 mmHg 72%

    28 April, Sunday

    Time Temperature Precipitation Wind Pressure Humidity
    00:00 +12°C° 0 mm 5 mps 729 mmHg 73%
    01:00 +12°C° 0 mm 5 mps 729 mmHg 73%
    02:00 +11°C° 0 mm 4 mps 729 mmHg 74%
    03:00 +11°C° 0 mm 4 mps 729 mmHg 74%
    04:00 +10°C° 0 mm 4 mps 729 mmHg 74%
    05:00 +10°C° 0 mm 3 mps 729 mmHg 75%
    06:00 +10°C° 0.1 mm 4 mps 729 mmHg 75%
    07:00 +11°C° 0.1 mm 4 mps 729 mmHg 75%
    08:00 +12°C° 0.1 mm 4 mps 730 mmHg 76%
    09:00 +12°C° 0.2 mm 3 mps 730 mmHg 78%
    10:00 +12°C° 0.2 mm 3 mps 730 mmHg 81%
    11:00 +14°C° 0.2 mm 2 mps 730 mmHg 84%
    12:00 +14°C° 0 mm 2 mps 730 mmHg 80%
    13:00 +15°C° 0 mm 2 mps 730 mmHg 76%
    14:00 +16°C° 0 mm 1 mps 730 mmHg 73%
    15:00 +18°C° 0 mm 1 mps 730 mmHg 69%
    16:00 +18°C° 0 mm 1 mps 730 mmHg 66%
    17:00 +19°C° 0 mm 1 mps 730 mmHg 62%
    18:00 +16°C° 0 mm 1 mps 730 mmHg 67%
    19:00 +15°C° 0 mm 1 mps 730 mmHg 73%
    20:00 +14°C° 0 mm 1 mps 731 mmHg 78%
    21:00 +13°C° 0 mm 2 mps 731 mmHg 83%
    22:00 +11°C° 0 mm 3 mps 731 mmHg 89%
    23:00 +10°C° 0 mm 3 mps 731 mmHg 94%
    Show more